Date,TemperatureHighF,TemperatureAvgF,TemperatureLowF,DewpointHighF,DewpointAvgF,DewpointLowF,HumidityHigh,HumidityAvg,HumidityLow,PressureMaxIn,PressureMinIn,WindSpeedMaxMPH,WindSpeedAvgMPH,GustSpeedMaxMPH,PrecipitationSumIn
2013-1-1,34.2,25.0,11.2,28.0,16.9,4.2,78,71,60,30.03,29.87,15,4,15,0.98
2013-1-2,30.4,23.7,12.2,22.0,16.5,5.8,78,74,69,30.18,29.99,18,5,18,0.98
2013-1-3,31.1,26.1,20.9,26.5,20.6,14.1,85,79,74,30.17,29.96,20,6,20,0.97
2013-1-4,34.2,31.7,28.4,26.6,24.9,21.7,79,76,68,30.05,29.89,33,16,38,0.98
2013-1-5,38.2,33.2,29.9,30.3,26.3,22.6,82,75,70,30.28,30.03,24,7,24,1.19
2013-1-6,37.1,35.2,33.1,32.1,30.2,25.9,88,82,71,30.09,29.89,17,7,17,2.25
2013-1-7,35.5,30.7,26.1,31.5,24.7,21.1,87,78,71,30.38,30.09,15,3,15,1.55
2013-1-8,40.5,33.5,29.2,30.8,25.2,21.6,79,72,65,30.30,30.15,17,5,17,4.63
2013-1-9,32.2,30.5,29.7,26.2,23.5,22.7,78,75,73,30.26,30.20,8,2,8,0.77
2013-1-10,46.3,38.1,32.8,32.4,28.5,25.0,78,69,57,30.59,30.36,10,2,10,3.05
2013-1-11,50.0,44.8,34.0,45.6,36.5,27.2,85,73,58,30.36,29.82,12,4,12,0.10
2013-1-12,62.1,52.9,46.6,52.3,47.2,42.8,87,81,69,30.01,29.94,21,5,21,0.00
2013-1-13,68.4,56.2,49.7,58.2,50.7,45.9,87,82,67,29.95,29.75,26,6,26,0.05
2013-1-14,49.9,34.9,29.0,46.4,28.2,20.6,90,77,67,30.39,29.75,24,7,24,0.05
2013-1-15,37.1,30.8,28.4,25.8,22.4,20.2,76,71,61,30.39,30.14,9,2,9,0.00
2013-1-16,39.8,34.0,29.9,31.6,26.6,22.9,78,74,64,30.14,29.79,28,6,28,0.00
2013-1-17,35.6,27.9,19.1,29.4,21.1,13.9,81,76,72,30.15,29.85,24,6,24,0.00
2013-1-18,34.4,22.7,15.5,20.4,14.2,9.3,81,70,56,30.42,30.00,19,6,19,0.00
2013-1-19,49.3,43.0,34.4,31.1,26.6,19.8,60,52,43,30.01,29.59,33,12,36,0.01
2013-1-20,49.1,31.6,19.1,34.8,18.5,8.1,68,59,45,30.08,29.49,43,14,43,0.08
2013-1-21,28.8,20.2,12.2,17.5,10.1,0.6,72,65,59,30.06,29.85,19,4,19,0.00
2013-1-22,14.0,9.6,6.7,1.7,-2.2,-5.3,62,58,54,30.16,29.89,22,9,22,0.00
2013-1-23,19.8,11.5,4.1,7.7,1.9,-5.6,73,65,51,30.20,30.08,10,2,10,0.00
2013-1-24,19.1,11.4,-0.4,11.2,3.2,-7.9,75,70,59,30.50,30.06,13,2,13,0.00
2013-1-25,23.4,11.6,-1.4,12.6,3.7,-8.9,75,70,60,30.48,30.04,8,1,8,0.00
2013-1-26,31.3,18.8,6.3,19.4,10.2,-0.3,77,69,57,30.39,30.06,4,1,4,0.22
2013-1-27,37.1,23.4,12.8,23.8,15.0,6.6,79,71,56,30.53,30.31,8,1,8,1.67
2013-1-28,45.5,37.3,25.7,43.4,32.7,17.3,92,83,70,30.31,29.83,22,6,22,4.54
2013-1-29,57.2,45.9,37.4,54.0,43.1,34.5,93,90,88,30.04,29.71,15,3,15,5.66
2013-1-30,67.0,60.2,52.7,56.2,52.6,46.1,89,76,64,29.72,29.06,31,8,31,0.18
2013-1-31,55.4,30.1,22.7,50.6,21.8,12.2,88,71,57,29.71,29.07,40,17,40,5.51
2013-2-1,26.5,21.2,18.9,14.9,12.6,9.6,77,69,59,30.17,29.71,20,8,20,5.85
2013-2-2,24.1,18.8,14.9,15.4,12.0,8.2,82,75,68,30.17,29.94,18,5,18,5.85
2013-2-3,32.4,19.0,8.3,22.1,11.8,2.9,81,74,58,29.95,29.77,12,1,12,6.18
2013-2-4,22.5,18.3,15.5,12.5,10.4,8.0,75,71,61,29.95,29.85,16,7,16,3.30
2013-2-10,45.5,40.6,36.7,32.1,27.1,25.0,70,59,52,30.11,29.90,12,4,12,1.38
2013-2-11,53.1,40.2,32.9,42.9,32.0,24.8,87,73,54,29.90,29.56,40,13,40,3.71
2013-2-12,35.6,33.0,31.9,30.0,27.7,25.5,90,81,73,29.97,29.75,30,12,30,0.01
2013-2-13,45.7,34.2,25.7,31.2,25.8,19.8,79,72,55,29.90,29.72,6,2,10,0.00
2013-2-14,44.1,36.9,25.4,34.5,29.8,19.8,85,76,62,29.88,29.77,24,5,24,0.10
2013-2-15,39.1,33.0,23.0,33.6,24.7,14.6,81,71,64,30.06,29.77,31,11,31,0.00
2013-2-16,34.2,26.1,19.4,20.4,16.7,10.5,77,68,56,30.06,29.89,12,2,12,0.00
2013-2-17,21.6,17.6,13.9,16.3,10.0,5.2,82,72,62,30.20,29.88,19,4,19,0.00
2013-2-18,40.7,24.9,8.8,25.0,14.1,3.0,78,65,49,30.25,29.85,10,2,10,0.02
2013-2-19,43.2,34.7,24.1,37.3,26.8,18.7,85,73,57,29.85,29.55,32,10,32,4.75
2013-2-20,25.6,22.3,19.8,19.6,14.0,10.8,82,70,59,30.09,29.77,27,12,27,6.82
2013-2-21,26.3,21.4,17.6,16.1,13.7,11.0,77,72,64,30.39,30.06,23,6,23,6.83
2013-2-22,38.7,30.7,21.4,30.8,23.6,15.5,80,75,63,30.36,29.97,12,4,12,7.00
2013-2-23,42.1,34.7,31.7,33.9,28.4,25.2,80,77,71,29.97,29.86,16,5,16,7.32
2013-2-24,33.7,31.6,30.2,26.8,25.3,24.3,81,77,74,30.08,29.85,20,7,20,7.31
2013-2-25,42.1,33.0,24.1,32.0,26.0,18.9,81,75,64,30.22,30.08,12,3,12,7.31
2013-2-26,47.2,34.8,23.6,33.1,27.0,18.8,87,74,54,30.20,29.69,19,5,19,8.71
2013-2-27,41.2,37.0,34.7,36.7,32.9,31.2,89,85,80,29.69,29.57,20,4,20,7.55
2013-2-28,37.4,34.8,32.8,33.6,31.5,30.0,90,88,85,29.75,29.54,15,5,15,8.38
2013-3-1,32.8,29.6,26.3,30.2,25.0,21.1,90,83,77,29.95,29.74,11,3,11,10.23
2013-3-2,27.9,25.3,22.1,21.6,19.8,17.2,82,80,76,29.95,29.88,10,3,10,10.24
2013-3-3,28.8,24.6,22.0,21.4,19.3,17.4,85,80,72,29.92,29.85,13,4,13,10.24
2013-3-4,33.7,26.5,19.1,23.8,20.1,14.1,82,77,65,30.05,29.92,21,6,21,10.24
2013-3-5,43.6,29.1,16.6,30.2,21.3,11.4,82,73,56,30.09,29.92,14,4,14,11.27
2013-3-6,45.4,33.8,23.9,33.8,27.1,19.4,84,77,61,30.13,29.91,13,5,13,11.94
2013-3-7,46.1,36.5,32.8,36.1,30.2,26.2,86,78,67,30.20,29.90,8,1,8,5.48
2013-3-8,48.6,36.8,28.8,31.8,27.8,22.1,86,71,49,30.09,29.96,14,2,14,0.04
2013-3-9,59.6,38.0,24.8,39.9,28.2,20.4,85,70,43,30.10,29.86,8,2,8,0.00
2013-3-10,72.5,55.0,33.5,39.6,31.7,25.0,72,43,29,29.86,29.63,20,5,20,0.00
2013-3-11,65.3,55.8,47.2,41.4,33.2,30.2,76,43,33,29.64,29.33,23,6,23,0.10
2013-3-12,47.2,38.1,34.0,40.8,32.0,28.4,82,79,75,29.60,29.40,23,11,23,2.03
2013-3-13,37.1,32.4,23.8,29.8,25.1,18.4,84,74,58,29.68,29.53,33,11,33,2.32
2013-3-14,24.1,23.2,22.9,18.4,14.2,13.1,79,68,66,29.70,29.67,26,9,26,0.41
2013-3-16,33.7,27.3,20.7,23.9,19.1,14.6,77,71,67,29.68,29.52,9,2,9,1.30
2013-3-17,40.3,27.7,19.8,24.2,17.7,10.2,81,67,46,30.01,29.68,9,2,9,3.90
2013-3-18,40.3,29.7,19.8,30.7,19.9,9.4,80,67,49,30.00,29.34,17,5,17,3.96
2013-3-19,37.6,32.4,25.9,32.9,26.2,18.1,86,78,70,29.54,29.33,29,12,29,6.61
2013-3-20,36.4,29.0,23.2,25.5,20.3,16.3,83,70,54,29.54,29.49,27,9,27,7.06
2013-3-21,23.8,23.2,22.7,16.7,15.8,15.0,75,73,72,29.53,29.49,7,3,7,1.22
2013-3-22,32.4,31.2,30.2,27.1,25.8,24.8,85,80,78,29.65,29.53,24,10,24,3.35
2013-3-23,42.7,34.3,29.2,31.1,26.5,23.5,79,73,62,29.72,29.62,17,5,17,8.03
2013-3-24,46.4,33.8,22.1,30.6,24.1,17.5,85,68,51,29.72,29.39,14,4,14,8.04
2013-3-25,44.5,37.0,31.9,31.3,26.8,23.4,77,67,56,29.44,29.30,13,5,13,8.04
2013-3-26,52.0,39.6,32.8,36.5,30.3,25.4,78,70,54,29.66,29.44,17,6,17,8.05
2013-3-27,42.7,35.1,32.0,33.5,29.7,25.8,88,81,68,29.77,29.64,21,7,21,8.48
2013-3-28,46.3,37.7,33.7,38.3,32.7,30.2,88,82,72,29.91,29.75,14,4,14,4.75
2013-3-29,54.4,41.4,34.6,37.0,32.2,26.4,85,71,47,29.91,29.84,17,6,17,0.00
2013-3-30,58.0,40.7,28.4,35.1,27.2,22.8,80,61,33,29.91,29.72,14,3,14,0.00
2013-3-31,61.4,47.3,38.2,40.9,32.7,24.2,81,58,37,29.72,29.31,21,5,21,0.17
2013-4-1,46.8,36.2,27.7,40.5,26.9,17.0,84,70,47,29.67,29.28,31,9,31,1.55
2013-4-2,34.2,27.5,24.3,22.0,17.5,15.4,70,66,58,29.75,29.66,24,8,24,1.09
2013-4-3,41.2,34.9,28.3,26.8,20.6,15.5,68,56,42,30.09,29.95,19,7,19,0.97
2013-4-4,57.1,37.4,24.1,29.0,19.5,15.0,73,51,30,30.04,29.62,14,3,14,1.79
2013-4-5,46.4,37.6,29.9,28.2,21.8,15.9,63,53,42,29.86,29.58,14,3,14,1.95
2013-4-6,60.5,40.8,22.1,30.8,21.2,14.5,74,49,25,30.00,29.69,11,2,11,1.95
2013-4-7,67.3,55.2,43.0,46.3,34.7,22.5,69,47,34,29.75,29.42,34,10,34,1.95
2013-4-8,71.3,50.4,32.9,52.6,38.4,25.8,82,65,40,29.80,29.45,25,3,25,2.28
2013-4-9,67.9,52.4,44.3,52.6,43.7,38.8,88,73,48,29.83,29.45,34,6,34,5.37
2013-4-10,50.2,45.3,41.4,46.5,42.2,38.1,91,89,87,29.72,29.50,18,6,18,14.90
2013-4-11,41.4,36.9,34.6,38.1,33.1,30.6,91,86,78,29.77,29.54,18,8,19,33.96
2013-4-12,55.8,41.1,34.9,51.9,37.9,32.5,94,88,79,29.54,29.16,31,11,31,18.59
2013-4-13,44.3,40.7,38.5,36.2,34.5,31.2,86,78,67,29.61,29.45,34,14,34,5.01
2013-4-14,51.1,42.2,35.6,33.5,30.2,26.6,83,64,44,29.83,29.61,20,6,20,5.36
2013-4-15,78.5,56.9,37.8,52.2,41.4,29.5,76,59,38,29.79,29.65,21,5,21,5.37
2013-4-16,64.8,57.0,46.1,56.7,49.9,43.3,92,78,59,29.90,29.63,23,7,23,7.83
2013-4-17,68.0,50.4,37.6,45.1,38.3,32.6,88,66,39,30.01,29.82,14,4,14,11.21
2013-4-18,86.0,65.8,46.4,61.4,50.9,33.7,73,60,43,29.84,29.35,23,8,23,11.22
2013-4-19,73.8,56.9,41.0,58.5,47.0,32.0,87,70,56,29.43,29.06,40,13,40,7.71
2013-4-20,41.6,37.4,33.1,32.8,27.6,21.9,85,68,53,30.04,29.42,31,12,31,0.01
2013-4-21,58.9,40.3,26.8,33.8,26.1,20.4,79,59,37,30.29,30.04,12,3,12,0.00
2013-4-22,73.8,52.1,34.7,37.3,28.5,21.5,63,44,21,30.18,29.91,11,3,11,0.00
2013-4-23,77.9,57.1,41.8,42.5,33.9,25.1,59,43,25,29.91,29.51,9,3,9,0.00
2013-4-24,66.2,53.7,38.2,55.3,42.9,32.9,90,69,43,29.61,29.18,25,8,25,1.54
2013-4-25,45.5,39.4,37.8,35.9,34.3,32.2,90,82,67,29.75,29.59,19,6,19,2.34
2013-4-26,61.2,52.7,44.3,35.6,29.5,18.5,62,42,22,30.04,29.15,10,3,10,3.35
2013-4-27,81.4,58.0,40.1,48.8,34.7,26.1,63,44,22,29.99,29.04,7,2,7,6.07
2013-4-28,76.7,59.6,46.8,48.7,41.5,35.2,75,54,26,29.71,28.90,16,4,16,6.82
2013-4-29,68.8,59.3,52.2,55.1,49.5,45.3,80,70,58,29.58,28.87,13,4,13,9.03
2013-4-30,76.1,62.7,58.3,54.1,52.4,51.5,78,71,46,29.69,29.64,5,2,5,5.00
2013-5-3,89.3,79.4,65.5,49.4,45.7,41.1,42,31,24,30.22,30.12,12,2,12,0.00
2013-5-4,65.3,61.6,59.4,41.9,41.5,41.0,52,48,42,30.17,30.16,2,0,2,0.00
2013-5-5,85.3,70.6,57.4,45.3,41.7,39.3,53,37,21,30.12,29.64,5,2,5,0.00
2013-5-6,87.5,64.9,45.9,45.4,40.6,35.7,68,45,21,30.17,30.04,12,2,12,0.00
2013-5-7,87.5,68.1,51.1,57.6,49.9,41.9,80,55,32,30.14,30.01,12,3,12,0.00
2013-5-8,73.8,64.0,56.7,63.2,54.4,47.5,82,71,58,30.06,29.96,8,2,8,0.04
2013-5-9,69.5,59.8,55.1,60.3,54.7,49.1,92,84,65,30.00,29.91,13,3,13,1.14
2013-5-10,77.0,61.5,53.5,63.3,55.5,48.6,90,81,58,29.98,29.75,14,3,14,1.73
2013-5-11,60.3,49.6,46.4,57.4,46.5,42.9,94,89,79,29.83,29.71,22,8,22,7.15
2013-5-12,50.9,43.5,39.4,46.8,36.1,29.4,89,76,61,29.97,29.72,32,11,32,8.24
2013-5-13,48.8,41.3,35.3,35.9,32.4,29.2,80,71,58,30.16,29.97,23,8,23,9.27
2013-5-14,60.5,48.9,37.1,40.2,34.3,29.4,83,60,36,30.17,29.93,11,3,11,9.31
2013-5-15,77.0,61.6,52.2,58.3,47.9,40.3,70,61,45,29.93,29.59,38,6,38,9.11
2013-5-16,72.7,64.4,51.8,50.9,45.7,35.7,81,52,27,30.06,29.77,20,5,20,9.51
2013-5-17,75.8,58.0,42.3,48.3,42.3,35.7,83,58,37,30.23,30.05,9,2,9,9.51
2013-5-18,83.0,64.5,48.8,53.7,46.9,40.0,76,55,34,30.25,30.13,10,4,10,9.50
2013-5-19,90.5,70.1,55.1,65.2,56.8,47.2,82,64,41,30.15,30.00,7,2,7,9.51
2013-5-20,94.7,76.5,62.3,70.2,62.9,56.2,84,65,40,30.07,29.89,10,2,10,9.51
2013-5-21,88.9,75.0,65.2,71.5,63.8,58.1,82,69,46,29.98,29.79,16,4,16,9.61
2013-5-22,91.1,75.1,64.6,69.0,63.6,59.3,85,69,43,29.84,29.68,20,4,20,10.18
2013-5-23,71.3,63.1,46.8,63.4,57.5,43.3,88,82,70,29.95,29.74,19,6,19,20.71
2013-5-24,53.5,44.9,40.3,43.3,37.7,35.5,90,77,54,30.25,29.95,11,3,11,27.22
2013-5-25,62.5,50.8,40.3,42.1,36.6,33.4,83,60,39,30.28,30.20,15,3,15,27.54
2013-5-26,65.9,53.0,40.9,42.9,37.1,31.9,79,57,32,30.25,30.19,16,4,16,27.55
2013-5-27,80.1,58.3,41.6,44.2,39.2,34.3,80,54,22,30.30,30.15,8,1,8,27.55
2013-5-28,65.2,56.5,52.0,60.4,48.7,39.5,88,76,55,30.18,30.02,5,2,5,13.63
2013-5-29,74.9,71.5,68.8,61.8,61.0,60.1,74,69,63,29.99,29.94,12,3,12,0.00
2013-5-30,87.8,75.6,63.4,68.2,63.5,58.1,86,67,50,30.09,29.99,14,4,14,0.00
2013-5-31,91.4,77.7,67.5,67.7,64.1,60.2,79,64,44,30.03,29.89,23,4,23,0.00
2013-6-1,87.5,74.5,68.6,69.5,65.3,61.4,88,74,53,29.94,29.73,22,5,22,2.28
2013-6-2,72.4,67.8,58.9,65.6,61.1,50.9,92,80,64,29.86,29.66,28,8,28,7.04
2013-6-3,64.1,55.6,49.5,51.3,45.9,41.9,82,70,57,30.00,29.86,16,5,16,6.59
2013-6-4,73.8,58.6,46.4,46.5,43.8,38.3,85,61,29,30.12,30.00,15,2,15,6.58
2013-6-5,78.8,61.8,49.9,53.7,47.1,40.6,81,61,38,30.16,30.01,13,4,13,6.86
2013-6-6,60.7,57.5,53.8,58.1,51.3,41.0,91,81,55,30.01,29.77,13,4,13,12.00
2013-6-7,63.9,60.0,58.0,58.2,56.2,54.7,91,87,80,29.82,29.77,7,2,7,13.41
2013-6-8,65.9,59.7,56.2,58.7,55.7,51.7,92,87,74,30.05,29.78,12,3,12,0.07
2013-6-9,87.1,67.6,52.0,62.6,55.3,48.4,89,68,39,30.15,30.04,8,2,8,0.00
2013-6-10,75.1,68.7,62.1,67.7,62.4,55.3,88,80,72,30.05,29.67,12,3,12,2.73
2013-6-11,68.4,64.2,60.1,63.3,60.7,58.1,94,88,80,29.82,29.62,21,6,21,9.24
2013-6-12,86.4,70.1,56.7,62.0,58.5,53.3,92,69,41,29.89,29.72,8,1,8,10.24
2013-6-13,68.9,66.9,65.0,60.0,59.3,58.5,82,77,72,29.72,29.59,4,1,4,1.74
2013-6-17,78.1,70.8,63.0,58.8,55.7,53.9,74,60,48,29.89,29.85,10,2,10,0.00
2013-6-18,79.6,67.3,57.4,60.3,54.3,47.6,86,65,38,29.99,29.84,12,3,12,0.00
2013-6-19,57.2,52.9,50.2,48.4,46.4,44.5,84,79,71,30.09,29.99,4,1,4,0.00
2013-6-22,77.0,77.0,77.0,64.4,64.4,64.4,65,65,65,30.00,30.00,3,3,3,0.00
2013-6-23,92.7,82.6,72.9,72.5,66.8,63.6,88,60,49,30.05,29.97,16,6,16,2.93
2013-6-24,83.7,77.9,71.6,68.4,65.1,62.2,77,65,50,30.04,29.92,23,7,23,4.38
2013-6-25,78.8,73.7,69.7,68.5,65.4,62.4,84,75,64,29.93,29.78,25,7,25,5.09
2013-6-26,72.4,70.2,69.3,67.1,65.4,64.6,88,85,80,29.82,29.79,17,6,17,2.16
2013-6-27,77.0,71.9,67.7,69.7,66.7,64.0,89,84,75,29.69,29.61,5,1,5,4.88
2013-6-28,74.3,67.2,63.7,68.4,63.8,60.8,92,89,78,29.62,29.47,9,2,9,4.23
2013-6-29,77.8,65.1,63.5,65.8,62.0,60.9,92,90,64,29.58,29.46,9,1,9,3.58
2013-7-3,94.5,83.8,73.6,75.3,71.3,68.6,86,68,51,30.11,30.04,10,3,10,1.31
2013-7-4,88.0,75.7,70.9,73.6,69.4,67.1,91,82,59,30.16,30.08,14,3,14,9.68
2013-7-5,83.5,74.3,69.7,73.8,68.6,66.0,91,83,63,30.11,30.04,17,3,17,17.38
2013-7-6,89.6,77.2,67.3,73.4,68.7,64.1,91,76,57,30.12,30.00,8,2,9,18.09
2013-7-7,80.6,74.9,71.6,69.8,68.1,65.2,90,79,68,30.03,29.93,19,6,19,20.12
2013-7-8,83.9,74.9,70.9,71.3,67.8,65.4,90,79,56,30.04,29.96,15,5,15,22.50
2013-7-9,85.0,75.1,70.2,74.1,69.5,66.8,90,83,68,30.02,29.87,10,2,10,23.60
2013-7-10,83.2,75.9,70.6,75.4,69.9,63.6,91,82,71,29.87,29.70,25,8,25,22.72
2013-7-11,80.8,72.1,64.6,66.5,60.6,56.7,86,68,53,29.99,29.82,10,2,10,10.15
2013-7-17,91.1,85.1,78.8,75.4,74.1,70.3,87,71,54,30.07,30.01,17,8,17,9.14
2013-7-18,89.5,81.6,74.9,78.4,74.3,70.0,91,79,59,30.02,29.31,18,6,18,23.37
2013-7-19,78.1,78.1,78.1,70.8,70.8,70.7,78,78,78,29.80,29.80,2,2,2,1.02
2013-7-23,81.2,74.4,64.6,69.4,66.2,58.3,86,76,59,29.72,29.62,20,7,21,3.70
2013-7-24,81.0,66.8,58.7,58.1,54.2,50.7,83,66,44,30.00,29.72,10,3,10,8.26
2013-7-30,77.0,71.5,63.2,61.6,59.0,56.3,79,65,57,30.17,30.14,15,4,15,3.75
2013-7-31,83.7,69.4,57.4,62.6,58.1,52.7,86,69,46,30.15,29.92,9,1,9,9.02
2013-8-1,76.0,69.7,65.5,66.6,62.7,59.5,89,79,67,29.92,29.78,18,4,18,12.42
2013-8-2,76.9,68.7,61.0,65.2,60.2,56.4,92,76,51,29.89,29.83,24,5,24,14.49
2013-8-3,77.4,68.6,60.5,63.5,58.7,54.6,90,72,53,29.95,29.83,17,5,17,14.87
2013-8-4,74.0,65.0,56.2,59.1,53.9,48.0,87,68,50,30.07,29.95,12,3,12,14.87
2013-8-5,79.2,63.5,51.1,57.2,51.3,45.8,86,66,43,30.11,30.01,8,2,8,14.87
2013-8-6,90.7,71.4,57.2,63.7,57.4,51.3,83,64,40,30.04,29.96,8,1,8,14.87
2013-8-7,85.5,74.3,65.2,72.1,64.2,58.1,83,71,55,29.97,29.86,16,4,16,16.95
2013-8-8,89.1,75.7,67.1,74.2,68.2,62.7,90,78,59,29.96,29.88,11,2,11,28.29
2013-8-9,79.0,71.1,64.8,68.0,64.4,58.7,89,80,62,29.95,29.86,13,3,13,16.42
2013-8-10,76.7,68.4,63.0,61.9,56.9,49.8,87,68,47,30.09,29.95,14,4,14,12.19
2013-8-11,85.5,67.0,54.9,61.2,55.2,49.8,88,68,42,30.14,30.04,8,1,8,12.19
2013-8-12,77.8,69.0,61.6,64.4,59.9,55.4,81,73,55,30.05,29.85,13,2,13,12.19
2013-8-13,72.2,66.2,58.0,65.4,57.6,47.2,91,75,57,29.90,29.76,19,4,19,2.33
2013-8-14,74.3,64.1,53.8,53.6,49.3,45.6,79,60,39,30.09,29.88,15,3,15,0.00
2013-8-15,73.4,62.6,51.5,56.3,50.9,45.5,85,67,46,30.13,30.08,22,5,22,0.00
2013-8-16,84.1,67.2,54.5,61.7,54.8,49.0,84,67,41,30.20,30.11,10,2,10,0.00
2013-8-17,89.5,70.1,55.1,61.9,55.9,50.1,84,64,37,30.28,30.20,8,2,8,0.00
2013-8-18,88.0,71.4,59.2,65.3,58.2,52.2,80,65,44,30.24,30.11,6,1,6,0.00
2013-8-19,83.5,70.5,60.3,65.1,60.0,55.1,87,71,46,30.12,30.04,12,3,12,0.00
2013-8-20,84.1,71.1,60.1,65.4,60.1,55.0,84,70,49,30.15,30.07,17,4,17,0.00
2013-8-21,88.2,73.4,61.6,66.3,61.2,56.3,84,67,44,30.17,30.03,13,3,13,0.00
2013-8-22,80.5,71.4,65.5,70.5,65.2,59.8,85,81,71,30.04,29.93,21,4,21,0.01
2013-8-23,85.0,70.0,57.8,61.9,56.9,51.1,87,66,41,30.20,30.00,10,1,10,0.01
2013-8-24,87.1,70.6,52.4,57.4,53.1,46.7,82,57,35,30.34,30.20,9,1,9,0.00
2013-8-25,81.9,68.5,55.4,60.0,54.2,48.6,83,63,40,30.33,30.15,17,3,17,0.00
2013-8-26,78.1,72.0,68.2,68.0,64.8,58.3,90,78,63,30.17,29.95,24,7,24,0.79
2013-8-27,83.9,74.2,67.9,73.8,69.2,64.8,92,85,70,29.96,29.88,12,3,12,0.03
2013-8-28,89.6,76.6,69.5,75.6,70.2,64.1,92,81,60,29.96,29.85,9,2,9,4.70
2013-8-29,92.9,75.7,62.8,72.4,65.9,59.0,92,74,48,30.05,29.96,8,1,8,4.87
2013-8-30,83.5,73.4,64.6,70.1,65.5,60.6,90,77,60,30.02,29.76,13,3,13,4.88
2013-8-31,84.2,75.3,71.1,71.2,68.5,65.8,91,80,62,29.85,29.71,13,4,13,6.23
2013-9-1,87.8,75.0,67.1,73.2,68.1,63.6,92,80,60,29.84,29.75,11,2,11,6.59
2013-9-2,78.3,72.1,63.9,71.5,65.7,55.4,91,81,70,29.82,29.71,20,3,20,6.58
2013-9-3,69.1,64.1,60.1,58.9,56.2,53.6,81,76,68,29.97,29.79,14,4,14,6.58
2013-9-4,74.9,66.5,56.0,64.6,57.9,50.4,90,75,51,30.00,29.95,26,8,26,6.67
2013-9-5,70.6,61.6,49.5,62.1,50.0,41.5,88,68,41,30.23,29.98,13,2,13,3.25
2013-9-6,71.3,57.2,45.0,50.6,45.5,39.5,84,67,46,30.28,30.09,11,2,11,8.13
2013-9-7,66.6,60.3,54.9,60.3,53.6,48.3,90,79,62,30.09,29.88,12,2,12,9.36
2013-9-8,74.7,65.1,53.3,63.6,54.8,45.5,92,71,45,30.10,29.86,12,3,12,0.02
2013-9-9,75.1,61.8,46.1,63.4,53.0,41.2,85,74,58,30.12,29.94,8,2,10,0.01
2013-9-10,87.3,77.4,68.8,74.1,69.5,63.1,86,77,64,29.98,29.91,27,9,27,0.10
2013-9-16,55.3,51.1,43.9,51.0,46.3,39.5,89,84,77,30.36,30.21,10,2,10,5.61
2013-9-17,74.0,53.7,39.4,50.0,42.8,35.6,89,70,40,30.45,30.25,9,2,9,11.22
2013-9-18,81.2,59.9,43.2,55.7,47.0,37.7,83,65,39,30.25,30.07,9,1,9,11.37
2013-9-19,80.3,63.6,49.7,62.5,54.1,44.4,85,72,53,30.09,29.97,11,2,11,11.46
2013-9-20,86.8,70.4,57.2,69.1,61.4,52.4,89,74,54,29.99,29.73,11,3,14,11.46
2013-9-21,73.4,64.2,55.1,65.3,59.9,50.3,90,86,73,29.73,29.60,12,3,12,7.88
2013-9-22,59.4,53.8,49.7,50.3,45.6,41.6,87,74,60,29.99,29.72,11,3,11,0.97
2013-9-23,65.5,54.2,46.3,46.1,43.2,39.3,83,68,46,30.11,29.99,8,1,8,1.06
2013-9-24,74.5,54.1,41.2,53.0,44.3,36.4,87,71,46,30.10,29.95,6,1,6,1.06
2013-9-25,78.5,56.8,43.6,55.2,46.4,38.6,86,70,42,29.95,29.87,8,1,8,1.87
2013-9-26,75.8,58.0,43.9,58.4,48.3,39.0,86,72,53,30.06,29.92,9,2,9,3.24
2013-9-27,76.7,59.8,47.9,59.0,50.9,42.8,89,74,52,30.16,30.06,8,2,8,3.26
2013-9-28,81.2,59.8,46.6,60.0,51.1,42.8,90,75,46,30.16,30.01,6,1,6,3.35
2013-9-29,74.0,57.3,48.8,58.7,49.3,43.5,84,75,59,30.02,29.78,8,2,8,1.79